Flag for U.S.A. Weather past 2 weeks in Fort Myers, Florida, U.S.A.

Now
80 °F

Passing clouds.


Feels Like: 85 °F
Forecast: 74 / 89 °F
Wind: 6 mph from West

Location: Page Field

Current Time: Oct 2, 2014 at 11:34:06 AM

Latest Report: Oct 2, 2014 at 10:53 AM


Visibility: 10 mi

Pressure: 30.05 "Hg

Humidity: 81%

Dew point: 74 °F

Location of Fort MyersLocation

Historic Weather in Fort Myers — Graph

°F

Fort Myers temperature yesterday

Maximum temperature yesterday: 88 °F (at 1:53 PM)
Minimum temperature yesterday: 77 °F (at 1:53 AM)
Average temperature yesterday: 80 °F

Past Weeks' High & Low Weather Summary

 TemperatureHumidityPressure
High92 °F (Sep 27, 3:53 PM)100% (Sep 18, 1:53 AM)30.06 "Hg (Sep 18, 1:53 AM)
Low72 °F (Sep 23, 3:53 AM)48% (Sep 18, 3:53 PM)29.82 "Hg (Sep 30, 4:53 PM)
Average78 °F89%29.95 "Hg
* Reported Sep 17 9:53 AM — Oct 2 9:53 AM, Fort Myers, Weather by CustomWeather, © 2014

Note: Actual official high and low records may vary slightly from our data, if they occured in-between our weather recording intervals... More about our weather records

Advertising

Fort Myers weather history for previous 24 hours

 ConditionsComfort  
Time TempWeatherWind HumidityBarometerVisibility
9:53 AM
Oct 2
80 °FSunny.5 mph87%30.04 "Hg10 mi
8:53 AM79 °FSunny.No wind90%30.03 "Hg10 mi
7:53 AM76 °FClear.No wind100%30.01 "Hg10 mi
6:53 AM76 °FClear.No wind97%29.99 "Hg10 mi
5:53 AM76 °FPassing clouds.No wind97%29.97 "Hg10 mi
4:53 AM76 °FClear.No wind97%29.96 "Hg10 mi
3:53 AM76 °FClear.No wind97%29.95 "Hg10 mi
2:53 AM77 °FClear.No wind96%29.95 "Hg10 mi
1:53 AM77 °FClear.No wind96%29.96 "Hg10 mi
12:53 AM78 °FClear.No wind93%29.97 "Hg10 mi
11:53 PM
Oct 1
78 °FClear.No wind93%29.98 "Hg10 mi
10:53 PM78 °FClear.No wind90%29.98 "Hg10 mi
9:53 PM78 °FClear.6 mph90%29.98 "Hg10 mi
8:53 PM79 °FClear.6 mph88%29.96 "Hg10 mi
7:53 PM80 °FSunny.7 mph87%29.93 "Hg10 mi
6:53 PM80 °FPassing clouds.8 mph85%29.91 "Hg10 mi
5:53 PM83 °FPassing clouds.15 mph72%29.90 "Hg10 mi
5:00 PM82 °FPartly sunny.8 mph82%29.89 "Hg10 mi
3:53 PM86 °FScattered clouds.13 mph70%29.90 "Hg10 mi
2:53 PM85 °FLight rain. Scattered clouds.14 mph72%29.90 "Hg8 mi
1:53 PM88 °FSunny.12 mph63%29.92 "Hg10 mi
12:53 PM85 °FBroken clouds.14 mph72%29.94 "Hg10 mi
11:53 AM81 °FPassing clouds.9 mph82%29.94 "Hg10 mi
Weather by CustomWeather, © 2014

See weather overviewHow to use our weather pages